FW6305 Weather Reports


time (UTC)temp
C
wind
direction
speed
KPH
gust
KPH
rain 1hr
cm
rain 24hr
cm
rain mn
cm
humidity
%
barometer
mb
20260902000533 22 291 8.0 19.3 0.00 0.00 0.00 49 1014.5
20260902000054 22 264 8.0 19.3 0.00 0.00 0.00 48 1014.5
20260901235533 22 212 8.0 17.7 0.00 0.00 0.00 48 1014.4
20260901235032 22 300 6.4 19.3 0.00 0.00 0.00 48 1014.4
20260901234554 22 184 8.0 19.3 0.00 0.00 0.00 47 1014.5
20260901234032 23 194 6.4 20.9 0.00 0.00 0.00 46 1014.6
20260901233530 23 245 6.4 24.1 0.00 0.00 0.00 46 1014.5
20260901233047 23 234 6.4 24.1 0.00 0.00 0.00 46 1014.5
20260901232532 23 261 8.0 24.1 0.00 0.00 0.00 46 1014.6
20260901232030 23 211 8.0 17.7 0.00 0.00 0.00 46 1014.5
20260901231554 23 232 6.4 20.9 0.00 0.00 0.00 44 1014.5
20260901231030 23 257 6.4 20.9 0.00 0.00 0.00 45 1014.6
20260901230534 23 277 8.0 17.7 0.00 0.00 0.00 45 1014.7
20260901230055 23 204 6.4 17.7 0.00 0.00 0.00 44 1014.9
20260901225535 23 240 6.4 16.1 0.00 0.00 0.00 45 1014.9
20260901225032 23 222 6.4 20.9 0.00 0.00 0.00 44 1015.0
20260901224557 23 147 4.8 25.7 0.00 0.00 0.00 45 1014.7
20260901224030 23 203 9.7 25.7 0.00 0.00 0.00 45 1014.9
20260901223532 23 208 3.2 14.5 0.00 0.00 0.00 45 1014.8
20260901223057 23 215 4.8 16.1 0.00 0.00 0.00 46 1014.9
20260901222533 23 215 6.4 16.1 0.00 0.00 0.00 45 1015.0
20260901222032 23 259 4.8 16.1 0.00 0.00 0.00 46 1014.9
20260901221557 23 215 6.4 19.3 0.00 0.00 0.00 47 1015.2
20260901221032 23 246 6.4 22.5 0.00 0.00 0.00 47 1015.1
20260901220531 23 241 4.8 22.5 0.00 0.00 0.00 47 1015.1
20260901220058 23 230 8.0 22.5 0.00 0.00 0.00 47 1015.4
20260901215533 23 251 6.4 22.5 0.00 0.00 0.00 48 1015.1
20260901215034 23 219 8.0 22.5 0.00 0.00 0.00 48 1015.2
20260901214554 23 259 4.8 22.5 0.00 0.00 0.00 47 1015.3
20260901214033 23 238 4.8 17.7 0.00 0.00 0.00 47 1015.4
20260901213534 24 269 6.4 19.3 0.00 0.00 0.00 45 1015.3
20260901213049 23 226 6.4 19.3 0.00 0.00 0.00 44 1015.3
20260901212532 23 258 6.4 22.5 0.00 0.00 0.00 47 1015.3
20260901212030 23 275 6.4 22.5 0.00 0.00 0.00 48 1015.3
20260901211546 23 254 6.4 17.7 0.00 0.00 0.00 46 1015.2
20260901211033 23 306 4.8 17.7 0.00 0.00 0.00 45 1015.3
20260901210533 23 252 6.4 17.7 0.00 0.00 0.00 45 1015.4
20260901210055 23 265 4.8 14.5 0.00 0.00 0.00 45 1015.3
20260901205534 23 243 4.8 20.9 0.00 0.00 0.00 44 1015.2
20260901205030 23 208 8.0 20.9 0.00 0.00 0.00 45 1015.3
20260901204551 23 290 1.6 14.5 0.00 0.00 0.00 43 1015.2
20260901204032 23 240 6.4 14.5 0.00 0.00 0.00 43 1015.4
20260901203531 23 288 6.4 16.1 0.00 0.00 0.00 43 1015.3
20260901203051 23 260 3.2 16.1 0.00 0.00 0.00 43 1015.5
20260901202532 23 253 4.8 17.7 0.00 0.00 0.00 43 1015.5
20260901202035 22 209 4.8 17.7 0.00 0.00 0.00 46 1015.7
20260901201546 22 252 6.4 19.3 0.00 0.00 0.00 45 1015.7
20260901201033 22 286 4.8 19.3 0.00 0.00 0.00 46 1015.8
20260901200530 22 200 4.8 22.5 0.00 0.00 0.00 47 1015.9
20260901195532 22 165 6.4 16.1 0.00 0.00 0.00 47 1015.9
20260901195034 22 217 6.4 16.1 0.00 0.00 0.00 45 1015.9
20260901194602 22 283 4.8 19.3 0.00 0.00 0.00 46 1015.8
20260901194033 22 221 4.8 20.9 0.00 0.00 0.00 46 1015.9
20260901193531 22 259 8.0 20.9 0.00 0.00 0.00 48 1016.0
20260901193108 22 234 6.4 20.9 0.00 0.00 0.00 50 1016.0
20260901192530 21 207 8.0 20.9 0.00 0.00 0.00 50 1016.1
20260901192030 21 211 6.4 20.9 0.00 0.00 0.00 51 1016.1
20260901191552 21 218 6.4 20.9 0.00 0.00 0.00 51 1016.1
20260901191032 21 212 8.0 20.9 0.00 0.00 0.00 50 1016.1
20260901190530 22 265 3.2 17.7 0.00 0.00 0.00 50 1016.1
20260901190107 22 252 4.8 17.7 0.00 0.00 0.00 50 1016.2
20260901185534 21 163 4.8 14.5 0.00 0.00 0.00 51 1016.0
20260901185032 21 218 4.8 17.7 0.00 0.00 0.00 53 1016.1
20260901184554 21 243 4.8 17.7 0.00 0.00 0.00 53 1016.1
20260901184035 21 239 6.4 16.1 0.00 0.00 0.00 53 1016.2
20260901183532 21 211 6.4 17.7 0.00 0.00 0.00 52 1016.2
20260901183054 21 226 4.8 17.7 0.00 0.00 0.00 53 1016.1
20260901182532 21 169 4.8 14.5 0.00 0.00 0.00 54 1016.2
20260901182029 21 231 6.4 14.5 0.00 0.00 0.00 57 1016.2
20260901181550 20 324 4.8 16.1 0.00 0.00 0.00 58 1016.1
20260901181031 20 223 6.4 16.1 0.00 0.00 0.00 58 1016.2
20260901180531 20 214 4.8 12.9 0.00 0.00 0.00 58 1016.2
20260901180054 20 244 4.8 19.3 0.00 0.00 0.00 59 1016.0
20260901175536 20 245 6.4 19.3 0.00 0.00 0.00 58 1016.0
20260901175030 20 252 6.4 16.1 0.00 0.00 0.00 57 1016.0
20260901174551 20 198 3.2 16.1 0.00 0.00 0.00 58 1015.9
20260901174032 20 205 4.8 17.7 0.00 0.00 0.00 58 1015.8
20260901173532 20 252 8.0 17.7 0.00 0.00 0.00 57 1015.8
20260901173050 20 263 3.2 14.5 0.00 0.00 0.00 59 1015.8
20260901172530 20 249 6.4 19.3 0.00 0.00 0.00 58 1015.7
20260901172032 20 229 4.8 19.3 0.00 0.00 0.00 57 1015.8
20260901171556 20 213 3.2 17.7 0.00 0.00 0.00 58 1015.8
20260901171029 20 220 3.2 19.3 0.00 0.00 0.00 59 1015.7
20260901170531 20 242 4.8 19.3 0.00 0.00 0.00 58 1015.5
20260901170054 19 208 4.8 19.3 0.00 0.00 0.00 61 1015.6
20260901165530 19 194 8.0 19.3 0.00 0.00 0.00 61 1015.5
20260901165034 19 208 6.4 17.7 0.00 0.00 0.00 61 1015.6
20260901164555 19 205 4.8 16.1 0.00 0.00 0.00 62 1015.5
20260901164031 19 223 4.8 16.1 0.00 0.00 0.00 61 1015.4
20260901163533 19 186 6.4 16.1 0.00 0.00 0.00 62 1015.3
20260901163059 20 255 4.8 14.5 0.00 0.00 0.00 62 1015.6
20260901162531 19 221 6.4 16.1 0.00 0.00 0.00 62 1015.5
20260901162032 19 190 4.8 16.1 0.00 0.00 0.00 62 1015.6
20260901161553 18 179 1.6 14.5 0.00 0.00 0.00 64 1015.4
20260901161032 18 196 4.8 16.1 0.00 0.00 0.00 64 1015.3
20260901160532 18 209 3.2 16.1 0.00 0.00 0.00 65 1015.2
20260901160055 18 196 6.4 16.1 0.00 0.00 0.00 64 1015.2
20260901155532 18 214 6.4 16.1 0.00 0.00 0.00 66 1015.1
20260901155030 18 226 8.0 16.1 0.00 0.00 0.00 65 1015.0
20260901154549 17 206 4.8 14.5 0.00 0.00 0.00 67 1015.1
20260901154036 17 182 4.8 14.5 0.00 0.00 0.00 68 1015.0
20260901153532 17 224 4.8 19.3 0.00 0.00 0.00 67 1014.9
20260901153055 17 236 4.8 19.3 0.00 0.00 0.00 68 1015.0
20260901152531 17 194 6.4 19.3 0.00 0.00 0.00 69 1014.9
20260901152031 17 178 6.4 16.1 0.00 0.00 0.00 69 1014.8
20260901151604 17 192 4.8 16.1 0.00 0.00 0.00 68 1014.7
20260901151030 17 208 3.2 14.5 0.00 0.00 0.00 68 1014.6
20260901150532 17 219 6.4 14.5 0.00 0.00 0.00 69 1014.6
20260901150056 17 223 4.8 16.1 0.00 0.00 0.00 69 1014.6
20260901145532 17 258 6.4 16.1 0.00 0.00 0.00 69 1014.5
20260901145033 17 216 4.8 14.5 0.00 0.00 0.00 70 1014.4
20260901144555 17 201 4.8 14.5 0.00 0.00 0.00 71 1014.5
20260901144031 16 196 4.8 14.5 0.00 0.00 0.00 71 1014.4
20260901143532 16 210 3.2 11.3 0.00 0.00 0.00 72 1014.3
20260901143108 16 205 3.2 12.9 0.00 0.00 0.00 72 1014.3
20260901142531 16 204 4.8 16.1 0.00 0.00 0.00 72 1014.4
20260901142031 16 238 4.8 16.1 0.00 0.00 0.00 72 1014.1
20260901141547 16 185 3.2 14.5 0.00 0.00 0.00 72 1014.1
20260901141030 16 211 4.8 11.3 0.00 0.00 0.00 72 1014.2
20260901140533 16 204 3.2 17.7 0.00 0.00 0.00 72 1014.1
20260901140107 16 219 4.8 17.7 0.00 0.00 0.00 71 1014.0
20260901135532 16 200 4.8 17.7 0.00 0.00 0.00 72 1013.9
20260901135030 16 214 4.8 11.3 0.00 0.00 0.00 72 1014.0
20260901134551 16 0 3.2 14.5 0.00 0.00 0.00 73 1013.8
20260901134033 16 216 4.8 14.5 0.00 0.00 0.00 73 1013.8
20260901133531 16 213 3.2 11.3 0.00 0.00 0.00 73 1013.7
20260901133049 16 213 3.2 11.3 0.00 0.00 0.00 74 1013.6
20260901132531 16 213 3.2 11.3 0.00 0.00 0.00 73 1013.6
20260901132034 16 213 3.2 11.3 0.00 0.00 0.00 74 1013.6
20260901131548 16 211 1.6 11.3 0.00 0.00 0.00 75 1013.5
20260901131031 16 214 3.2 11.3 0.00 0.00 0.00 76 1013.5
20260901130534 16 215 3.2 11.3 0.00 0.00 0.00 76 1013.6
20260901130051 16 217 3.2 11.3 0.00 0.00 0.00 77 1013.8
20260901125531 16 218 1.6 11.3 0.00 0.00 0.00 77 1013.7
20260901125031 16 219 3.2 11.3 0.00 0.00 0.00 78 1013.6
20260901124551 16 221 3.2 11.3 0.00 0.00 0.00 77 1013.6
20260901124031 16 220 3.2 11.3 0.00 0.00 0.00 78 1013.5
20260901123530 15 227 3.2 9.7 0.00 0.00 0.00 78 1013.6
20260901123054 15 215 1.6 9.7 0.00 0.00 0.00 77 1013.5
20260901122533 15 0 3.2 9.7 0.00 0.00 0.00 77 1013.4
20260901122031 16 214 1.6 11.3 0.00 0.00 0.00 77 1013.2
20260901121603 16 215 3.2 14.5 0.00 0.00 0.00 77 1013.2
20260901121032 16 217 1.6 14.5 0.00 0.00 0.00 76 1013.1
20260901120530 16 217 4.8 14.5 0.00 0.00 0.00 76 1013.1
20260901120048 16 215 4.8 16.1 0.00 0.00 0.00 76 1013.1
20260901115532 16 216 6.4 16.1 0.00 0.00 0.00 76 1013.3
20260901115031 16 250 3.2 14.5 0.00 0.00 0.00 76 1013.3
20260901114555 16 200 4.8 12.9 0.00 0.00 0.00 76 1013.3
20260901114035 16 227 3.2 11.3 0.00 0.00 0.00 75 1013.4
20260901113530 16 232 1.6 19.3 0.00 0.00 0.00 75 1013.4
20260901113100 16 248 6.4 19.3 0.00 0.00 0.00 76 1013.3
20260901112531 16 300 4.8 14.5 0.00 0.00 0.00 76 1013.2
20260901112031 16 252 4.8 16.1 0.00 0.00 0.00 76 1013.4
20260901111551 16 242 4.8 16.1 0.00 0.00 0.00 75 1013.4
20260901111033 16 252 3.2 12.9 0.00 0.00 0.00 75 1013.4
20260901110532 16 211 3.2 16.1 0.00 0.00 0.00 75 1013.4
20260901110109 16 219 3.2 16.1 0.00 0.00 0.00 74 1013.2
20260901105530 16 225 4.8 14.5 0.00 0.00 0.00 75 1013.2
20260901105033 16 240 6.4 14.5 0.00 0.00 0.00 75 1013.1
20260901104556 16 203 6.4 14.5 0.00 0.00 0.00 75 1013.1
20260901104033 16 207 6.4 14.5 0.00 0.00 0.00 75 1012.9
20260901103535 16 248 3.2 17.7 0.00 0.00 0.00 74 1013.0
20260901103100 16 202 6.4 17.7 0.00 0.00 0.00 75 1013.0
20260901102531 16 179 3.2 12.9 0.00 0.00 0.00 74 1012.9
20260901102032 16 211 4.8 17.7 0.00 0.00 0.00 74 1012.9
20260901101552 16 191 8.0 17.7 0.00 0.00 0.00 74 1013.0
20260901101031 16 234 4.8 14.5 0.00 0.00 0.00 73 1012.8
20260901100533 16 201 4.8 17.7 0.00 0.00 0.00 73 1012.8
20260901095533 16 209 6.4 22.5 0.00 0.00 0.00 73 1012.8
20260901095031 16 247 6.4 22.5 0.00 0.00 0.00 72 1012.7
20260901094559 16 256 8.0 17.7 0.00 0.00 0.00 72 1012.8
20260901094033 16 259 6.4 17.7 0.00 0.00 0.00 73 1012.9
20260901093534 16 198 4.8 14.5 0.00 0.00 0.00 73 1012.9
20260901093104 16 221 4.8 16.1 0.00 0.00 0.00 73 1013.0
20260901092535 16 239 6.4 16.1 0.00 0.00 0.00 73 1013.0
20260901092031 16 185 4.8 20.9 0.00 0.00 0.00 73 1013.0
20260901091558 16 210 6.4 29.0 0.00 0.00 0.00 72 1013.1
20260901091029 16 207 8.0 29.0 0.00 0.00 0.00 72 1013.0
20260901090530 16 202 9.7 27.4 0.00 0.00 0.00 72 1012.9
20260901090055 16 168 6.4 16.1 0.00 0.00 0.00 72 1012.9
20260901085531 16 217 6.4 16.1 0.00 0.00 0.00 72 1013.0
20260901085031 16 246 4.8 14.5 0.00 0.00 0.00 72 1013.0
20260901084555 16 250 6.4 16.1 0.00 0.00 0.00 72 1013.0
20260901084033 16 215 4.8 19.3 0.00 0.00 0.00 72 1012.9
20260901083532 16 248 8.0 20.9 0.00 0.00 0.00 72 1012.9
20260901083057 16 257 8.0 20.9 0.00 0.00 0.00 72 1012.9
20260901082532 16 221 8.0 17.7 0.00 0.00 0.00 72 1013.0
20260901082030 16 231 6.4 17.7 0.00 0.00 0.00 72 1013.1
20260901081548 16 204 4.8 17.7 0.00 0.00 0.00 71 1013.1
20260901081033 16 216 6.4 17.7 0.00 0.00 0.00 71 1013.0
20260901080533 16 211 4.8 19.3 0.00 0.00 0.00 71 1013.0
20260901080046 16 222 8.0 19.3 0.00 0.00 0.00 71 1013.1
20260901075533 16 261 8.0 17.7 0.00 0.00 0.00 71 1013.1
20260901075032 16 232 4.8 14.5 0.00 0.00 0.00 71 1013.1
20260901074547 16 171 4.8 14.5 0.00 0.00 0.00 71 1013.1
20260901074032 16 213 3.2 16.1 0.00 0.00 0.00 70 1013.1
20260901073532 16 212 3.2 16.1 0.00 0.00 0.00 70 1013.1
20260901073053 16 236 4.8 20.9 0.00 0.00 0.00 70 1013.0
20260901072533 16 240 4.8 20.9 0.00 0.00 0.00 70 1013.0
20260901072029 16 232 4.8 16.1 0.00 0.00 0.00 71 1013.0
20260901071547 16 236 4.8 14.5 0.00 0.00 0.00 71 1013.1
20260901071032 16 200 6.4 14.5 0.00 0.00 0.00 71 1013.0
20260901070531 16 244 4.8 16.1 0.00 0.00 0.00 71 1013.1
20260901065531 16 193 6.4 22.5 0.00 0.00 0.00 71 1013.0
20260901065034 16 242 6.4 22.5 0.00 0.00 0.00 71 1012.9
20260901064554 16 196 4.8 20.9 0.00 0.00 0.00 71 1013.1
20260901064035 16 204 6.4 20.9 0.00 0.00 0.00 71 1013.0
20260901063532 16 210 4.8 17.7 0.00 0.00 0.00 71 1013.0
20260901063053 16 242 6.4 20.9 0.00 0.00 0.00 71 1013.1
20260901062532 16 262 8.0 20.9 0.00 0.00 0.00 71 1013.1
20260901062032 16 213 6.4 20.9 0.00 0.00 0.00 71 1013.0
20260901061558 16 194 4.8 19.3 0.00 0.00 0.00 71 1013.3
20260901061030 16 225 6.4 19.3 0.00 0.00 0.00 71 1013.2
20260901060530 16 207 4.8 17.7 0.00 0.00 0.00 72 1013.3
20260901060049 16 196 4.8 22.5 0.00 0.00 0.00 72 1013.1
20260901055532 16 200 8.0 22.5 0.00 0.00 0.00 72 1013.3
20260901055032 16 249 9.7 19.3 0.00 0.00 0.00 71 1013.3
20260901054546 16 217 6.4 25.7 0.00 0.00 0.00 72 1013.2
20260901054031 16 211 9.7 25.7 0.00 0.00 0.00 72 1013.1
20260901053530 16 198 11.3 25.7 0.00 0.00 0.00 72 1013.1
20260901053105 16 262 8.0 22.5 0.00 0.00 0.00 72 1013.2
20260901052528 15 209 6.4 17.7 0.00 0.00 0.00 72 1013.1
20260901052031 16 240 4.8 17.7 0.00 0.00 0.00 72 1013.1
20260901051557 16 251 6.4 22.5 0.00 0.00 0.00 72 1013.1
20260901051037 16 232 8.0 22.5 0.00 0.00 0.00 72 1013.0
20260901050528 16 260 4.8 20.9 0.00 0.00 0.00 72 1013.0
20260901050051 16 183 6.4 20.9 0.00 0.00 0.00 72 1012.8
20260901045531 16 234 4.8 17.7 0.00 0.00 0.00 72 1012.9
20260901045031 16 244 4.8 17.7 0.00 0.00 0.00 72 1012.8
20260901044602 16 247 6.4 24.1 0.00 0.00 0.00 72 1012.9
20260901044029 16 211 8.0 24.1 0.00 0.00 0.00 72 1012.9
20260901043529 16 251 8.0 24.1 0.00 0.00 0.00 72 1012.8
20260901043104 16 230 8.0 19.3 0.00 0.00 0.00 71 1012.8
20260901042534 16 242 8.0 19.3 0.00 0.00 0.00 71 1012.9
20260901042029 16 179 6.4 19.3 0.00 0.00 0.00 71 1012.8
20260901041542 16 218 8.0 19.3 0.00 0.00 0.00 71 1012.8
20260901041032 16 227 6.4 20.9 0.00 0.00 0.00 71 1012.8
20260901040529 16 209 9.7 20.9 0.00 0.00 0.00 71 1012.7
20260901040052 16 186 9.7 24.1 0.00 0.00 0.00 71 1012.6
20260901035531 16 251 11.3 29.0 0.00 0.00 0.00 71 1012.6
20260901035029 16 190 9.7 29.0 0.00 0.00 0.00 72 1012.3
20260901034547 16 263 8.0 25.7 0.00 0.00 0.00 72 1012.5
20260901034032 16 204 9.7 25.7 0.00 0.00 0.00 72 1012.2
20260901033532 16 240 8.0 25.7 0.00 0.00 0.00 72 1012.0
20260901033044 16 207 6.4 22.5 0.00 0.00 0.00 71 1011.8
20260901032529 16 219 8.0 24.1 0.00 0.00 0.00 71 1011.6
20260901032029 16 253 11.3 24.1 0.00 0.00 0.00 71 1011.5
20260901031554 16 202 8.0 24.1 0.00 0.00 0.00 71 1011.5
20260901031031 16 220 8.0 24.1 0.00 0.00 0.00 71 1011.5
20260901030529 16 242 8.0 22.5 0.00 0.00 0.00 71 1011.5
20260901030053 16 210 8.0 20.9 0.00 0.00 0.00 71 1011.6
20260901025530 16 209 8.0 19.3 0.00 0.00 0.00 71 1011.7
20260901025031 16 281 6.4 19.3 0.00 0.00 0.00 70 1011.8
20260901024546 16 215 4.8 17.7 0.00 0.00 0.00 70 1011.7
20260901024031 16 250 4.8 20.9 0.00 0.00 0.00 70 1011.9
20260901023531 16 229 6.4 20.9 0.00 0.00 0.00 70 1011.9
20260901023055 16 159 4.8 12.9 0.00 0.00 0.00 69 1012.0
20260901022531 16 211 3.2 14.5 0.00 0.00 0.00 69 1011.9
20260901022033 16 259 4.8 14.5 0.00 0.00 0.00 69 1011.9
20260901021543 17 153 4.8 14.5 0.00 0.00 0.00 68 1011.9
20260901021032 17 272 4.8 14.5 0.00 0.00 0.00 68 1012.0
20260901020532 17 266 3.2 20.9 0.00 0.00 0.00 68 1011.9
20260901020055 17 261 6.4 20.9 0.00 0.00 0.00 68 1011.9
20260901015532 17 292 4.8 17.7 0.00 0.00 0.00 67 1011.9
20260901015028 17 265 4.8 16.1 0.00 0.00 0.00 67 1011.9
20260901014553 17 260 3.2 29.0 0.00 0.00 0.00 67 1012.0
20260901014031 17 266 6.4 30.6 0.00 0.00 0.00 67 1012.0
20260901013533 18 223 9.7 30.6 0.00 0.00 0.00 66 1012.1
20260901013053 18 223 3.2 20.9 0.00 0.00 0.00 65 1011.8
20260901012535 18 217 6.4 20.9 0.00 0.00 0.00 65 1011.8
20260901012028 18 249 6.4 19.3 0.00 0.00 0.00 65 1011.7
20260901011601 18 223 6.4 20.9 0.00 0.00 0.00 65 1011.8
20260901011032 18 281 9.7 25.7 0.00 0.00 0.00 64 1011.8
20260901010533 19 245 9.7 25.7 0.00 0.00 0.00 64 1011.8
20260901010051 19 232 9.7 22.5 0.00 0.00 0.00 64 1011.7
20260901005534 19 252 11.3 27.4 0.00 0.00 0.00 63 1011.6
20260901005031 19 258 11.3 30.6 0.00 0.00 0.00 64 1011.6
20260901004555 19 240 9.7 30.6 0.00 0.00 0.00 64 1011.6
20260901004033 19 269 14.5 30.6 0.00 0.00 0.00 63 1011.6
20260901003532 20 248 9.7 24.1 0.00 0.00 0.00 62 1011.5
20260901003046 20 236 9.7 27.4 0.00 0.00 0.00 63 1011.5
20260901002532 19 248 8.0 27.4 0.00 0.00 0.00 64 1011.5
20260901002028 19 254 11.3 27.4 0.00 0.00 0.00 63 1011.7
20260901001551 19 223 8.0 22.5 0.00 0.00 0.00 64 1011.6
20260901001032 19 230 11.3 30.6 0.00 0.00 0.00 64 1011.6